TimeCST,TemperatureF,Dew PointF,Humidity,Sea Level PressureIn,VisibilityMPH,Wind Direction,Wind SpeedMPH,Gust SpeedMPH,PrecipitationIn,Events,Conditions,WindDirDegrees,DateUTC
12:15 AM,26.6,24.8,93,30.19,6.0,SE,13.8,-,N/A,,Clear,140,2013-03-08 06:15:00
12:35 AM,26.6,24.8,93,30.19,6.0,SE,13.8,-,N/A,,Clear,140,2013-03-08 06:35:00
12:55 AM,26.6,24.8,93,30.19,6.0,SSE,13.8,-,N/A,,Clear,150,2013-03-08 06:55:00
1:15 AM,26.6,24.8,93,30.20,6.0,SSE,13.8,-,N/A,,Clear,150,2013-03-08 07:15:00
1:35 AM,26.6,24.8,93,30.20,7.0,SE,12.7,-,N/A,,Clear,140,2013-03-08 07:35:00
1:55 AM,26.6,24.8,93,30.20,7.0,SE,13.8,-,N/A,,Clear,140,2013-03-08 07:55:00
2:15 AM,26.6,24.8,93,30.20,6.0,SE,10.4,-,N/A,,Clear,140,2013-03-08 08:15:00
2:35 AM,26.6,24.8,93,30.19,6.0,SE,10.4,-,N/A,,Clear,140,2013-03-08 08:35:00
2:55 AM,24.8,23.0,93,30.19,5.0,SE,8.1,-,N/A,,Clear,130,2013-03-08 08:55:00
3:15 AM,24.8,23.0,93,30.18,4.0,SE,8.1,-,N/A,,Clear,130,2013-03-08 09:15:00
3:35 AM,24.8,23.0,93,30.18,4.0,SE,6.9,-,N/A,,Clear,130,2013-03-08 09:35:00
3:55 AM,23.0,23.0,100,30.18,4.0,ESE,8.1,-,N/A,,Clear,120,2013-03-08 09:55:00
4:15 AM,23.0,23.0,100,30.18,4.0,ESE,5.8,-,N/A,,Clear,120,2013-03-08 10:15:00
4:35 AM,23.0,23.0,100,30.18,4.0,ESE,8.1,-,N/A,,Clear,120,2013-03-08 10:35:00
4:55 AM,23.0,23.0,100,30.18,4.0,ESE,8.1,-,N/A,,Clear,120,2013-03-08 10:55:00
5:15 AM,23.0,23.0,100,30.18,4.0,ESE,8.1,-,N/A,,Clear,120,2013-03-08 11:15:00
5:35 AM,23.0,21.2,93,30.18,4.0,ESE,6.9,-,N/A,,Clear,120,2013-03-08 11:35:00
5:55 AM,23.0,21.2,93,30.18,4.0,ESE,8.1,-,N/A,,Clear,120,2013-03-08 11:55:00
6:15 AM,23.0,23.0,100,30.18,4.0,ESE,9.2,-,N/A,,Clear,120,2013-03-08 12:15:00
6:35 AM,23.0,21.2,93,30.17,3.0,ESE,9.2,-,N/A,,Clear,120,2013-03-08 12:35:00
6:55 AM,23.0,23.0,100,30.17,2.0,ESE,10.4,-,N/A,,Clear,120,2013-03-08 12:55:00
7:15 AM,23.0,23.0,100,30.16,2.0,ESE,10.4,-,N/A,,Clear,110,2013-03-08 13:15:00
7:35 AM,24.8,23.0,93,30.18,2.0,ESE,9.2,-,N/A,,Clear,120,2013-03-08 13:35:00
7:55 AM,24.8,23.0,93,30.18,2.5,SE,11.5,-,N/A,,Clear,130,2013-03-08 13:55:00
8:15 AM,24.8,24.8,100,30.19,2.5,ESE,9.2,-,N/A,,Clear,120,2013-03-08 14:15:00
8:35 AM,26.6,24.8,93,30.19,3.0,ESE,8.1,-,N/A,,Clear,110,2013-03-08 14:35:00
8:55 AM,28.4,26.6,93,30.18,3.0,ESE,10.4,-,N/A,,Clear,120,2013-03-08 14:55:00
9:15 AM,28.4,26.6,93,30.18,3.0,SE,12.7,-,N/A,,Clear,130,2013-03-08 15:15:00
9:35 AM,30.2,28.4,93,30.18,4.0,SE,11.5,-,N/A,,Clear,130,2013-03-08 15:35:00
9:55 AM,30.2,28.4,93,30.18,4.0,ESE,9.2,-,N/A,,Clear,120,2013-03-08 15:55:00
10:15 AM,32.0,30.2,93,30.18,4.0,ESE,9.2,-,N/A,,Clear,120,2013-03-08 16:15:00
10:35 AM,33.8,30.2,87,30.17,5.0,ESE,9.2,-,N/A,,Clear,120,2013-03-08 16:35:00
10:55 AM,35.6,30.2,81,30.16,5.0,ESE,12.7,-,N/A,,Haze,120,2013-03-08 16:55:00
11:15 AM,35.6,32.0,87,30.15,5.0,ESE,10.4,-,N/A,,Haze,120,2013-03-08 17:15:00
11:35 AM,37.4,32.0,81,30.16,6.0,SE,11.5,-,N/A,,Haze,130,2013-03-08 17:35:00
11:55 AM,39.2,33.8,81,30.15,6.0,ESE,11.5,-,N/A,,Haze,120,2013-03-08 17:55:00
12:15 PM,41.0,35.6,81,30.15,6.0,ESE,10.4,-,N/A,,Haze,120,2013-03-08 18:15:00
12:35 PM,41.0,35.6,81,30.14,7.0,SE,11.5,-,N/A,,Clear,130,2013-03-08 18:35:00
12:55 PM,42.8,35.6,76,30.11,6.0,ESE,16.1,-,N/A,,Haze,120,2013-03-08 18:55:00
1:15 PM,42.8,35.6,76,30.10,7.0,ESE,16.1,-,N/A,,Clear,120,2013-03-08 19:15:00
1:35 PM,44.6,37.4,76,30.10,7.0,ESE,13.8,-,N/A,,Clear,120,2013-03-08 19:35:00
1:55 PM,44.6,37.4,76,30.09,7.0,SE,13.8,-,N/A,,Clear,130,2013-03-08 19:55:00
2:15 PM,44.6,37.4,76,30.07,7.0,SE,18.4,-,N/A,,Clear,130,2013-03-08 20:15:00
2:35 PM,44.6,37.4,76,30.07,7.0,ESE,17.3,-,N/A,,Clear,120,2013-03-08 20:35:00
2:55 PM,44.6,37.4,76,30.07,7.0,ESE,17.3,-,N/A,,Clear,120,2013-03-08 20:55:00
3:15 PM,42.8,37.4,81,30.06,-9999.0,ESE,17.3,23.0,N/A,,Clear,120,2013-03-08 21:15:00
3:35 PM,41.0,37.4,87,30.05,6.0,ESE,21.9,27.6,N/A,,Haze,120,2013-03-08 21:35:00
3:55 PM,41.0,35.6,81,30.04,6.0,SE,20.7,-,N/A,,Haze,130,2013-03-08 21:55:00
4:15 PM,39.2,35.6,87,30.03,6.0,ESE,17.3,26.5,N/A,,Haze,120,2013-03-08 22:15:00
4:35 PM,39.2,37.4,93,30.02,4.0,SE,18.4,25.3,N/A,,Clear,130,2013-03-08 22:35:00
4:55 PM,39.2,35.6,87,30.01,5.0,SE,23.0,29.9,N/A,,Clear,130,2013-03-08 22:55:00
5:15 PM,37.4,35.6,93,30.00,4.0,ESE,19.6,-,N/A,,Clear,120,2013-03-08 23:15:00
5:35 PM,39.2,35.6,87,30.00,4.0,SE,19.6,-,N/A,,Clear,130,2013-03-08 23:35:00
5:55 PM,39.2,35.6,87,30.00,4.0,SE,21.9,27.6,N/A,,Clear,130,2013-03-08 23:55:00
6:15 PM,37.4,35.6,93,30.00,4.0,SE,17.3,-,N/A,,Partly Cloudy,130,2013-03-09 00:15:00
6:35 PM,37.4,33.8,87,30.00,4.0,SE,17.3,23.0,N/A,,Mostly Cloudy,130,2013-03-09 00:35:00
6:55 PM,37.4,33.8,87,30.00,6.0,SE,17.3,24.2,N/A,,Mostly Cloudy,140,2013-03-09 00:55:00
7:15 PM,37.4,33.8,87,30.00,6.0,SE,17.3,-,N/A,,Mostly Cloudy,130,2013-03-09 01:15:00
7:35 PM,37.4,33.8,87,29.99,6.0,SE,16.1,-,N/A,,Overcast,130,2013-03-09 01:35:00
7:55 PM,37.4,32.0,81,29.99,7.0,SE,18.4,26.5,N/A,,Overcast,140,2013-03-09 01:55:00
8:15 PM,37.4,32.0,81,29.99,6.0,SE,20.7,-,N/A,,Overcast,140,2013-03-09 02:15:00
8:35 PM,35.6,33.8,93,30.00,3.0,SE,19.6,-,N/A,Snow,Light Snow,140,2013-03-09 02:35:00
8:55 PM,35.6,33.8,93,29.99,7.0,SE,16.1,-,0.03,,Overcast,130,2013-03-09 02:55:00
9:15 PM,35.6,33.8,93,29.98,3.0,SE,20.7,28.8,N/A,,Overcast,140,2013-03-09 03:15:00
9:35 PM,35.6,33.8,93,29.99,7.0,SE,16.1,24.2,N/A,,Overcast,140,2013-03-09 03:35:00
9:55 PM,35.6,33.8,93,29.99,5.0,SE,17.3,-,0.01,,Overcast,140,2013-03-09 03:55:00
10:15 PM,35.6,33.8,93,29.98,4.0,SE,18.4,-,N/A,Rain,Light Rain,140,2013-03-09 04:15:00
10:35 PM,35.6,33.8,93,29.96,6.0,SE,18.4,-,N/A,,Overcast,140,2013-03-09 04:35:00
10:55 PM,35.6,33.8,93,29.96,3.0,SE,17.3,-,0.03,Rain,Light Rain,140,2013-03-09 04:55:00
11:15 PM,35.6,33.8,93,29.95,3.0,SE,16.1,-,N/A,,Overcast,140,2013-03-09 05:15:00
11:35 PM,35.6,33.8,93,29.95,4.0,SE,17.3,24.2,N/A,,Overcast,140,2013-03-09 05:35:00
11:55 PM,35.6,33.8,93,29.94,4.0,SE,16.1,23.0,N/A,,Overcast,140,2013-03-09 05:55:00